EW5195 Weather Reports


Display with metric or nautical units.
time (UTC)temp
F
wind
direction
speed
MPH
gust
MPH
rain 1hr
in
rain 24hr
in
rain mn
in
humidity
%
barometer
mb
20260831024604 74 0 0.0 0.0 0.00 0.00 0.00 90 1020.7
20260831024050 75 0 0.0 0.0 0.00 0.00 0.00 90 1020.6
20260831023548 75 0 0.0 0.0 0.00 0.00 0.00 90 1020.8
20260831023101 75 0 0.0 0.0 0.00 0.00 0.00 90 1020.8
20260831022549 75 0 0.0 0.0 0.00 0.00 0.00 90 1020.7
20260831022049 75 0 0.0 0.0 0.00 0.00 0.00 90 1020.9
20260831021602 76 0 0.0 0.0 0.00 0.00 0.00 89 1020.7
20260831021049 76 0 0.0 0.0 0.00 0.00 0.00 89 1020.8
20260831020549 76 0 0.0 0.0 0.00 0.00 0.00 89 1020.8
20260831020106 76 0 0.0 0.0 0.00 0.00 0.00 89 1020.8
20260831015548 76 0 0.0 0.0 0.00 0.00 0.00 89 1021.0
20260831015048 76 0 0.0 0.0 0.00 0.00 0.00 89 1020.9
20260831014604 76 0 0.0 0.0 0.00 0.00 0.00 89 1021.0
20260831014049 76 0 0.0 0.0 0.00 0.00 0.00 90 1020.9
20260831013549 76 0 0.0 0.0 0.00 0.00 0.00 90 1021.1
20260831013109 76 0 0.0 0.0 0.00 0.00 0.00 89 1021.0
20260831012553 76 0 0.0 0.0 0.00 0.00 0.00 89 1021.1
20260831012052 76 0 0.0 0.0 0.00 0.00 0.00 90 1021.0
20260831011609 76 0 0.0 0.0 0.00 0.00 0.00 90 1021.0
20260831011049 76 0 0.0 0.0 0.00 0.00 0.00 89 1020.9
20260831010553 77 0 0.0 0.0 0.00 0.00 0.00 89 1020.9
20260831010108 77 0 0.0 0.0 0.00 0.00 0.00 89 1020.9
20260831005549 77 0 0.0 0.0 0.00 0.00 0.00 89 1020.7
20260831005049 77 0 0.0 0.0 0.00 0.00 0.00 89 1020.6
20260831004612 77 0 0.0 0.0 0.00 0.00 0.00 89 1020.6
20260831004050 77 0 0.0 0.0 0.00 0.00 0.00 88 1020.4
20260831003553 77 0 0.0 0.0 0.00 0.00 0.00 88 1020.4
20260831003110 77 0 0.0 0.0 0.00 0.00 0.00 88 1020.3
20260831002548 78 0 0.0 0.0 0.00 0.00 0.00 88 1020.3
20260831002051 78 0 0.0 0.0 0.00 0.00 0.00 88 1020.1
20260831001606 78 0 0.0 0.0 0.00 0.00 0.00 87 1020.2
20260831001052 79 0 0.0 0.0 0.00 0.00 0.00 87 1020.2
20260831000551 79 0 0.0 0.0 0.00 0.00 0.00 87 1020.1
20260831000108 79 0 0.0 0.0 0.00 0.00 0.00 86 1020.0
20260830235551 80 0 0.0 0.0 0.00 0.00 0.00 85 1020.0
20260830235050 80 0 0.0 0.0 0.00 0.00 0.00 85 1020.1
20260830234605 80 0 0.0 0.0 0.00 0.00 0.00 84 1020.2
20260830234049 81 0 0.0 0.0 0.00 0.00 0.00 84 1020.1
20260830233548 81 0 0.0 0.0 0.00 0.00 0.00 83 1020.2
20260830233114 81 0 0.0 0.0 0.00 0.00 0.00 83 1020.3
20260830232552 81 0 0.0 0.0 0.00 0.00 0.00 82 1020.3
20260830232049 81 0 0.0 0.0 0.00 0.00 0.00 82 1020.3
20260830231608 82 0 0.0 0.0 0.00 0.00 0.00 82 1020.3
20260830231048 82 0 0.0 0.0 0.00 0.00 0.00 81 1020.3
20260830230551 82 0 0.0 0.0 0.00 0.00 0.00 80 1020.3
20260830230107 83 0 0.0 0.0 0.00 0.00 0.00 79 1020.2
20260830225548 83 0 0.0 0.0 0.00 0.00 0.00 78 1020.3
20260830225051 83 0 0.0 0.0 0.00 0.00 0.00 78 1020.3
20260830224604 83 0 0.0 0.0 0.00 0.00 0.00 79 1020.1
20260830224050 83 0 0.0 0.0 0.00 0.00 0.00 77 1020.2
20260830223551 83 0 0.0 0.0 0.00 0.00 0.00 77 1020.2
20260830223109 84 0 0.0 0.0 0.00 0.00 0.00 76 1020.1
20260830222549 84 0 0.0 0.0 0.00 0.00 0.00 76 1020.1
20260830222050 84 0 0.0 0.0 0.00 0.00 0.00 76 1020.2
20260830221610 84 0 0.0 0.0 0.00 0.00 0.00 75 1020.2
20260830221052 85 0 0.0 0.0 0.00 0.00 0.00 74 1020.3
20260830220552 85 0 0.0 0.0 0.00 0.00 0.00 73 1020.2
20260830215552 86 0 0.0 0.0 0.00 0.00 0.00 72 1020.0
20260830215053 86 0 0.0 0.0 0.00 0.00 0.00 69 1020.1
20260830214610 86 0 0.0 0.0 0.00 0.00 0.00 68 1020.1
20260830214051 87 0 0.0 0.0 0.00 0.00 0.00 69 1020.0
20260830213548 87 0 0.0 0.0 0.00 0.00 0.00 68 1020.1
20260830213100 87 0 0.0 0.0 0.00 0.00 0.00 67 1020.0
20260830212549 88 0 0.0 0.0 0.00 0.00 0.00 67 1020.0
20260830212049 88 0 0.0 0.0 0.00 0.00 0.00 66 1020.0
20260830211606 88 0 0.0 0.0 0.00 0.00 0.00 66 1019.9
20260830211048 88 0 0.0 0.0 0.00 0.00 0.00 67 1019.9
20260830210550 88 0 0.0 0.0 0.00 0.00 0.00 68 1020.0
20260830210108 89 0 0.0 0.0 0.00 0.00 0.00 65 1020.0
20260830205548 88 0 0.0 0.0 0.00 0.00 0.00 66 1020.0
20260830205050 89 0 0.0 0.0 0.00 0.00 0.00 64 1020.0
20260830204602 89 0 0.0 0.0 0.00 0.00 0.00 65 1020.1
20260830204053 89 0 0.0 0.0 0.00 0.00 0.00 65 1020.1
20260830203552 89 0 0.0 0.0 0.00 0.00 0.00 64 1020.2
20260830203107 89 0 0.0 0.0 0.00 0.00 0.00 63 1020.4
20260830202549 89 0 0.0 0.0 0.00 0.00 0.00 65 1020.5
20260830202051 89 0 0.0 0.0 0.00 0.00 0.00 65 1020.4
20260830201608 89 0 0.0 0.0 0.00 0.00 0.00 65 1020.5
20260830201052 90 0 0.0 0.0 0.00 0.00 0.00 65 1020.5
20260830200551 89 0 0.0 0.0 0.00 0.00 0.00 66 1020.6
20260830200108 89 0 0.0 0.0 0.00 0.00 0.00 65 1020.4
20260830195555 89 0 0.0 0.0 0.00 0.00 0.00 65 1020.5
20260830195052 88 0 0.0 0.0 0.00 0.00 0.00 67 1020.6
20260830194605 88 0 0.0 0.0 0.00 0.00 0.00 67 1020.7
20260830194051 88 0 0.0 0.0 0.00 0.00 0.00 69 1020.7
20260830193552 87 0 0.0 0.0 0.00 0.00 0.00 66 1020.9
20260830193100 88 0 0.0 0.0 0.00 0.00 0.00 68 1021.1
20260830192550 87 0 0.0 0.0 0.00 0.00 0.00 66 1021.1
20260830192053 87 0 0.0 0.0 0.00 0.00 0.00 69 1021.2
20260830191604 88 0 0.0 0.0 0.00 0.00 0.00 67 1021.3
20260830191054 87 0 0.0 0.0 0.00 0.00 0.00 69 1021.3
20260830190551 88 0 0.0 0.0 0.00 0.00 0.00 67 1021.3
20260830190105 88 0 0.0 0.0 0.00 0.00 0.00 69 1021.3
20260830185552 87 0 0.0 0.0 0.00 0.00 0.00 71 1021.5
20260830185051 87 0 0.0 0.0 0.00 0.00 0.00 68 1021.5
20260830184604 87 0 0.0 0.0 0.00 0.00 0.00 67 1021.6
20260830184051 87 0 0.0 0.0 0.00 0.00 0.00 69 1021.7
20260830183548 86 0 0.0 0.0 0.00 0.00 0.00 69 1021.8
20260830183059 87 0 0.0 0.0 0.00 0.00 0.00 70 1021.9
20260830182553 86 0 0.0 0.0 0.00 0.00 0.00 68 1022.0
20260830182053 86 0 0.0 0.0 0.00 0.00 0.00 71 1022.2
20260830181607 86 0 0.0 0.0 0.00 0.00 0.00 72 1022.3
20260830181052 85 0 0.0 0.0 0.00 0.00 0.00 70 1022.3
20260830180553 85 0 0.0 0.0 0.00 0.00 0.00 71 1022.4
20260830180119 84 0 0.0 0.0 0.00 0.00 0.00 77 1022.6
20260830175551 84 0 0.0 0.0 0.00 0.00 0.00 75 1022.8
20260830175052 84 0 0.0 0.0 0.00 0.00 0.00 77 1022.5
20260830174617 84 0 0.0 0.0 0.00 0.00 0.00 73 1022.7
20260830174051 85 0 0.0 0.0 0.00 0.00 0.00 72 1022.6
20260830173551 85 0 0.0 0.0 0.00 0.00 0.00 70 1022.7
20260830173105 86 0 0.0 0.0 0.00 0.00 0.00 71 1022.7
20260830172631 85 0 0.0 0.0 0.00 0.00 0.00 73 1022.6
20260830172051 84 0 0.0 0.0 0.00 0.00 0.00 71 1022.8
20260830171607 84 0 0.0 0.0 0.00 0.00 0.00 73 1022.8
20260830171051 84 0 0.0 0.0 0.00 0.00 0.00 74 1022.9
20260830170551 84 0 0.0 0.0 0.00 0.00 0.00 76 1022.9
20260830170105 84 0 0.0 0.0 0.00 0.00 0.00 75 1023.1
20260830165550 84 0 0.0 0.0 0.00 0.00 0.00 74 1023.1
20260830165125 83 0 0.0 0.0 0.00 0.00 0.00 77 1023.1
20260830164628 84 0 0.0 0.0 0.00 0.00 0.00 76 1023.1
20260830164051 84 0 0.0 0.0 0.00 0.00 0.00 74 1023.1
20260830163552 84 0 0.0 0.0 0.00 0.00 0.00 73 1023.2
20260830163105 84 0 0.0 0.0 0.00 0.00 0.00 76 1023.0
20260830162552 83 0 0.0 0.0 0.00 0.00 0.00 75 1023.2
20260830162050 83 0 0.0 0.0 0.00 0.00 0.00 74 1023.2
20260830161607 84 0 0.0 0.0 0.00 0.00 0.00 76 1023.2
20260830161050 84 0 0.0 0.0 0.00 0.00 0.00 75 1023.2
20260830160551 84 0 0.0 0.0 0.00 0.00 0.00 75 1023.5
20260830160107 84 0 0.0 0.0 0.00 0.00 0.00 73 1023.4
20260830155551 84 0 0.0 0.0 0.00 0.00 0.00 75 1023.6
20260830155048 83 0 0.0 0.0 0.00 0.00 0.00 76 1023.6
20260830154603 83 0 0.0 0.0 0.00 0.00 0.00 77 1023.6
20260830154051 82 0 0.0 0.0 0.00 0.00 0.00 77 1023.6
20260830153551 82 0 0.0 0.0 0.00 0.00 0.00 76 1023.5
20260830153104 81 0 0.0 0.0 0.00 0.00 0.00 80 1023.6
20260830152551 80 0 0.0 0.0 0.00 0.00 0.00 82 1023.7
20260830152049 80 0 0.0 0.0 0.00 0.00 0.00 83 1023.7
20260830151605 80 0 0.0 0.0 0.00 0.00 0.00 85 1023.7
20260830151053 79 0 0.0 0.0 0.00 0.00 0.00 84 1023.8
20260830150550 79 0 0.0 0.0 0.00 0.00 0.00 85 1023.8
20260830150109 79 0 0.0 0.0 0.00 0.00 0.00 85 1023.9
20260830145552 78 0 0.0 0.0 0.00 0.00 0.00 86 1023.7
20260830145052 78 0 0.0 0.0 0.00 0.00 0.00 87 1023.9
20260830144605 78 0 0.0 0.0 0.00 0.00 0.00 87 1024.1
20260830144051 78 0 0.0 0.0 0.00 0.00 0.00 87 1024.1
20260830143555 78 0 0.0 0.0 0.00 0.00 0.00 87 1024.1
20260830143107 78 0 0.0 0.0 0.00 0.00 0.00 87 1024.2
20260830142551 78 0 0.0 0.0 0.00 0.00 0.00 88 1024.1
20260830142053 77 0 0.0 0.0 0.00 0.00 0.00 89 1024.1
20260830141605 76 0 0.0 0.0 0.00 0.00 0.00 90 1024.1
20260830141050 75 0 0.0 0.0 0.00 0.00 0.00 92 1024.3
20260830140549 75 0 0.0 0.0 0.00 0.00 0.00 92 1024.3
20260830140107 75 0 0.0 0.0 0.00 0.00 0.00 94 1024.3
20260830135551 75 0 0.0 0.0 0.00 0.00 0.00 94 1024.2
20260830135050 74 0 0.0 0.0 0.00 0.00 0.00 95 1024.3
20260830134607 74 0 0.0 0.0 0.00 0.00 0.00 95 1024.4
20260830134051 74 0 0.0 0.0 0.00 0.00 0.00 95 1024.5
20260830133550 74 0 0.0 0.0 0.00 0.00 0.00 95 1024.5
20260830133113 74 0 0.0 0.0 0.00 0.00 0.00 95 1024.5
20260830132555 73 0 0.0 0.0 0.00 0.00 0.00 95 1024.6
20260830132051 73 0 0.0 0.0 0.00 0.00 0.00 95 1024.8
20260830131614 73 0 0.0 0.0 0.00 0.00 0.00 95 1024.7
20260830131050 72 0 0.0 0.0 0.00 0.00 0.00 95 1024.8
20260830130551 72 0 0.0 0.0 0.00 0.00 0.00 95 1024.9
20260830130107 71 0 0.0 0.0 0.00 0.00 0.00 95 1024.9
20260830125550 71 0 0.0 0.0 0.00 0.00 0.00 95 1024.9
20260830125049 71 0 0.0 0.0 0.00 0.00 0.00 95 1024.9
20260830124621 71 0 0.0 0.0 0.00 0.00 0.00 95 1024.8
20260830124053 71 0 0.0 0.0 0.00 0.00 0.00 95 1024.9
20260830123551 70 0 0.0 0.0 0.00 0.00 0.00 95 1024.9
20260830123107 70 0 0.0 0.0 0.00 0.00 0.00 95 1025.0
20260830122551 70 0 0.0 0.0 0.00 0.00 0.00 95 1024.9
20260830122052 70 0 0.0 0.0 0.00 0.00 0.00 95 1024.9
20260830121606 69 0 0.0 0.0 0.00 0.00 0.00 95 1024.9
20260830121057 69 0 0.0 0.0 0.00 0.00 0.00 95 1024.9
20260830120551 69 0 0.0 0.0 0.00 0.00 0.00 95 1024.9
20260830115550 68 0 0.0 0.0 0.00 0.00 0.00 95 1024.8
20260830115051 68 0 0.0 0.0 0.00 0.00 0.00 95 1024.8
20260830114616 68 0 0.0 0.0 0.00 0.00 0.00 95 1024.8
20260830114049 67 0 0.0 0.0 0.00 0.00 0.00 95 1024.8
20260830113554 67 0 0.0 0.0 0.00 0.00 0.00 95 1024.8
20260830113105 67 0 0.0 0.0 0.00 0.00 0.00 95 1024.6
20260830112548 67 0 0.0 0.0 0.00 0.00 0.00 95 1024.6
20260830112136 67 0 0.0 0.0 0.00 0.00 0.00 95 1024.6
20260830111603 66 0 0.0 0.0 0.00 0.00 0.00 95 1024.6
20260830111049 66 0 0.0 0.0 0.00 0.00 0.00 95 1024.6
20260830110550 66 0 0.0 0.0 0.00 0.00 0.00 94 1024.4
20260830105549 66 0 0.0 0.0 0.00 0.00 0.00 94 1024.3
20260830105050 66 0 0.0 0.0 0.00 0.00 0.00 94 1024.3
20260830104607 66 0 0.0 0.0 0.00 0.00 0.00 94 1024.2
20260830104051 66 0 0.0 0.0 0.00 0.00 0.00 94 1024.2
20260830103550 66 0 0.0 0.0 0.00 0.00 0.00 94 1024.2
20260830103105 66 0 0.0 0.0 0.00 0.00 0.00 94 1024.1
20260830102554 66 0 0.0 0.0 0.00 0.00 0.00 94 1024.0
20260830102050 67 0 0.0 0.0 0.00 0.00 0.00 94 1023.9
20260830101616 67 0 0.0 0.0 0.00 0.00 0.00 94 1023.9
20260830101104 67 0 0.0 0.0 0.00 0.00 0.00 94 1023.9
20260830100552 67 0 0.0 0.0 0.00 0.00 0.00 94 1023.9
20260830095550 67 0 0.0 0.0 0.00 0.00 0.00 94 1023.9
20260830095052 67 0 0.0 0.0 0.00 0.00 0.00 94 1023.9
20260830094608 67 0 0.0 0.0 0.00 0.00 0.00 94 1023.8
20260830094052 67 0 0.0 0.0 0.00 0.00 0.00 94 1023.9
20260830093551 67 0 0.0 0.0 0.00 0.00 0.00 94 1024.0
20260830093106 67 0 0.0 0.0 0.00 0.00 0.00 94 1023.9
20260830092551 67 0 0.0 0.0 0.00 0.00 0.00 94 1024.0
20260830092050 67 0 0.0 0.0 0.00 0.00 0.00 94 1024.0
20260830091606 67 0 0.0 0.0 0.00 0.00 0.00 94 1024.2
20260830091052 67 0 0.0 0.0 0.00 0.00 0.00 94 1024.0
20260830090551 66 0 0.0 0.0 0.00 0.00 0.00 94 1024.0
20260830090112 66 0 0.0 0.0 0.00 0.00 0.00 94 1024.0
20260830085554 66 0 0.0 0.0 0.00 0.00 0.00 94 1024.1
20260830085053 66 0 0.0 0.0 0.00 0.00 0.00 94 1023.9
20260830084606 66 0 0.0 0.0 0.00 0.00 0.00 94 1024.0
20260830084051 66 0 0.0 0.0 0.00 0.00 0.00 94 1024.0
20260830083550 66 0 0.0 0.0 0.00 0.00 0.00 94 1023.9
20260830083156 67 0 0.0 0.0 0.00 0.00 0.00 94 1024.0
20260830082551 67 0 0.0 0.0 0.00 0.00 0.00 94 1024.0
20260830082050 67 0 0.0 0.0 0.00 0.00 0.00 94 1024.0
20260830081605 67 0 0.0 0.0 0.00 0.00 0.00 94 1024.0
20260830081049 67 0 0.0 0.0 0.00 0.00 0.00 94 1024.1
20260830080551 67 0 0.0 0.0 0.00 0.00 0.00 94 1024.2
20260830080104 67 0 0.0 0.0 0.00 0.00 0.00 94 1024.0
20260830075551 67 0 0.0 0.0 0.00 0.00 0.00 94 1024.1
20260830075049 67 0 0.0 0.0 0.00 0.00 0.00 94 1024.1
20260830074605 67 0 0.0 0.0 0.00 0.00 0.00 94 1024.1
20260830074051 67 0 0.0 0.0 0.00 0.00 0.00 94 1024.1
20260830073556 67 0 0.0 0.0 0.00 0.00 0.00 94 1024.0
20260830073111 67 0 0.0 0.0 0.00 0.00 0.00 94 1024.1
20260830072552 67 0 0.0 0.0 0.00 0.00 0.00 94 1024.1
20260830072051 67 0 0.0 0.0 0.00 0.00 0.00 94 1024.2
20260830071604 67 0 0.0 0.0 0.00 0.00 0.00 94 1024.0
20260830071050 67 0 0.0 0.0 0.00 0.00 0.00 94 1024.1
20260830070551 67 0 0.0 0.0 0.00 0.00 0.00 93 1024.1
20260830070109 67 0 0.0 0.0 0.00 0.00 0.00 94 1024.2
20260830065554 67 0 0.0 0.0 0.00 0.00 0.00 94 1024.1
20260830065050 67 0 0.0 0.0 0.00 0.00 0.00 94 1024.1
20260830064614 67 0 0.0 0.0 0.00 0.00 0.00 94 1024.2
20260830064049 67 0 0.0 0.0 0.00 0.00 0.00 93 1024.3
20260830063551 67 0 0.0 0.0 0.00 0.00 0.00 93 1024.3
20260830063100 67 0 0.0 0.0 0.00 0.00 0.00 93 1024.3
20260830062553 68 0 0.0 0.0 0.00 0.00 0.00 94 1024.3
20260830062054 68 0 0.0 0.0 0.00 0.00 0.00 94 1024.4
20260830061607 68 0 0.0 0.0 0.00 0.00 0.00 94 1024.3
20260830061049 68 0 0.0 0.0 0.00 0.00 0.00 93 1024.4
20260830060551 68 0 0.0 0.0 0.00 0.00 0.00 93 1024.5
20260830060106 68 0 0.0 0.0 0.00 0.00 0.00 93 1024.5
20260830055550 68 0 0.0 0.0 0.00 0.00 0.00 93 1024.6
20260830055051 68 0 0.0 0.0 0.00 0.00 0.00 93 1024.6
20260830054607 68 0 0.0 0.0 0.00 0.00 0.00 93 1024.6
20260830054050 68 0 0.0 0.0 0.00 0.00 0.00 93 1024.7
20260830053550 68 0 0.0 0.0 0.00 0.00 0.00 93 1024.6
20260830053104 68 0 0.0 0.0 0.00 0.00 0.00 93 1024.7
20260830052549 68 0 0.0 0.0 0.00 0.00 0.00 93 1024.6
20260830052049 69 0 0.0 0.0 0.00 0.00 0.00 93 1024.8
20260830051606 69 0 0.0 0.0 0.00 0.00 0.00 93 1024.6
20260830051051 69 0 0.0 0.0 0.00 0.00 0.00 93 1024.6
20260830050550 69 0 0.0 0.0 0.00 0.00 0.00 93 1024.6
20260830050108 69 0 0.0 0.0 0.00 0.00 0.00 93 1024.7
20260830045549 69 0 0.0 0.0 0.00 0.00 0.00 93 1024.6
20260830045050 69 0 0.0 0.0 0.00 0.00 0.00 93 1024.7
20260830044603 69 0 0.0 0.0 0.00 0.00 0.00 93 1024.8
20260830044050 69 0 0.0 0.0 0.00 0.00 0.00 93 1024.8
20260830043549 69 0 0.0 0.0 0.00 0.00 0.00 93 1024.8
20260830043123 69 0 0.0 0.0 0.00 0.00 0.00 93 1024.8
20260830042555 70 0 0.0 0.0 0.00 0.00 0.00 93 1024.7
20260830042054 69 0 0.0 0.0 0.00 0.00 0.00 93 1024.6
20260830041606 70 0 0.0 0.0 0.00 0.00 0.00 93 1024.7
20260830041052 70 0 0.0 0.0 0.00 0.00 0.00 93 1024.7
20260830040553 70 0 0.0 0.0 0.00 0.00 0.00 93 1024.7
20260830040112 70 0 0.0 0.0 0.00 0.00 0.00 93 1024.6
20260830035551 70 0 0.0 0.0 0.00 0.00 0.00 93 1024.5
20260830035054 70 0 0.0 0.0 0.00 0.00 0.00 93 1024.4
20260830034600 70 0 0.0 0.0 0.00 0.00 0.00 93 1024.4
20260830034050 70 0 0.0 0.0 0.00 0.00 0.00 93 1024.4
20260830033547 70 0 0.0 0.0 0.00 0.00 0.00 93 1024.3
20260830033106 70 0 0.0 0.0 0.00 0.00 0.00 93 1024.4
20260830032549 70 0 0.0 0.0 0.00 0.00 0.00 93 1024.3
20260830032050 71 0 0.0 0.0 0.00 0.00 0.00 93 1024.3
20260830031621 71 0 0.0 0.0 0.00 0.00 0.00 92 1024.2
20260830031050 71 0 0.0 0.0 0.00 0.00 0.00 92 1024.3
20260830030553 71 0 0.0 0.0 0.00 0.00 0.00 92 1024.1
20260830025550 71 0 0.0 0.0 0.00 0.00 0.00 92 1024.1
20260830025050 71 0 0.0 0.0 0.00 0.00 0.00 92 1024.0